• Join FlightAware (Why Join?)
  • Login
  • US Flag 
01:52PM EDT


 

Airport Tracker/Info


-or-


 

Live Flight TrackerFlight Track Log ✈ SWA1725 ✈ 07-Apr-2013 ✈ KMDW - KBHM

Flight Track Log - Related Links

Times and Time Zones

All times are in EDT time to prevent confusion due to time zone crossing. See the SWA1725 flight status page for this flight to view local times or setup timezone preferences in your user account.

Time Position Orientation Groundspeed Altitude Reporting Facility
EDT Latitude Longitude Course Direction KTS MPH feet Rate Location/Type
09:37PM 41.7833 -87.7000 180° South 174 200 2,400  Level Chicago TRACON
09:38PM 41.7333 -87.6833 166° South 204 235 5,900 3,120 Climbing Chicago TRACON
09:41PM 41.5722 -87.7817 205° Southwest 298 343 13,300 3,480 Climbing Chicago Center
09:42PM 41.4861 -87.8344 205° Southwest 333 383 17,400 3,660 Climbing Chicago Center
09:43PM 41.1554 -87.8833 180° South  Level FlightAware Approximate
09:43PM 41.3889 -87.8789 199° South 366 421 20,900  Level Chicago Center
09:44PM 41.2789 -87.8906 185° South 391 450 23,800 2,880 Climbing Chicago Center
09:45PM 41.1656 -87.8903 180° South 404 465 26,900 2,580 Climbing Chicago Center
09:46PM 41.0489 -87.8869 179° South 415 478 29,200 2,100 Climbing Chicago Center
09:47PM 40.9281 -87.8825 178° South 431 496 31,300 2,340 Climbing Chicago Center
09:48PM 40.7786 -87.8778 179° South 445 512 34,000 2,400 Climbing Chicago Center
09:49PM 40.6575 -87.8731 178° South 442 509 36,300 2,040 Climbing Chicago Center
09:50PM 40.5397 -87.8700 179° South 430 495 38,300 1,680 Climbing Chicago Center
09:51PM 40.4208 -87.8661 179° South 427 491 39,800 900 Climbing Chicago Center
09:52PM 40.3114 -87.8647 179° South 429 494 40,000 60 Climbing Indianapolis Center
09:53PM 40.1900 -87.8589 178° South 433 498 40,000  Level Indianapolis Center
09:54PM 40.0686 -87.8539 178° South 434 499 40,000 60 Level Indianapolis Center
09:55PM 39.9486 -87.8456 177° South 430 495 40,200 480 Climbing Indianapolis Center
09:56PM 39.8275 -87.8197 171° South 435 501 41,000 360 Climbing Indianapolis Center
09:57PM 39.7078 -87.7983 172° South 434 499 41,000  Level Indianapolis Center
09:58PM 39.5903 -87.7764 172° South 427 491 41,000  Level Indianapolis Center
09:59PM 39.4725 -87.7536 172° South 427 491 41,000  Level Indianapolis Center
10:00PM 39.3553 -87.7333 172° South 425 489 41,000  Level Indianapolis Center
10:01PM 39.2383 -87.7108 172° South 424 488 41,000  Level Indianapolis Center
10:02PM 39.0969 -87.6856 172° South 425 489 41,000  Level Indianapolis Center
10:03PM 38.9772 -87.6644 172° South 432 497 41,000  Level Indianapolis Center
10:04PM 38.8581 -87.6422 172° South 432 497 41,000  Level Indianapolis Center
10:05PM 38.7372 -87.6206 172° South 437 503 41,000  Level Indianapolis Center
10:06PM 38.6167 -87.6000 172° South 438 504 41,000  Level Indianapolis Center
10:07PM 38.4964 -87.5778 172° South 438 504 41,000  Level Indianapolis Center
10:08PM 38.3761 -87.5564 172° South 439 505 41,000  Level Indianapolis Center
10:09PM 38.2561 -87.5350 172° South 438 504 41,000  Level Indianapolis Center
10:10PM 38.1378 -87.5150 172° South 433 498 41,000  Level Indianapolis Center
10:11PM 38.0183 -87.4933 172° South 433 498 41,000  Level Indianapolis Center
10:12PM 37.8983 -87.4722 172° South 436 502 41,000  Level Indianapolis Center
10:13PM 37.7706 -87.4503 172° South 437 503 41,000  Level Indianapolis Center
10:14PM 37.6497 -87.4281 172° South 435 501 41,000  Level Indianapolis Center
10:15PM 37.5281 -87.4125 174° South 450 518 41,000  Level Memphis Center
10:16PM 37.4214 -87.3931 172° South 445 512 41,000  Level Memphis Center
10:17PM 37.3019 -87.3636 169° South 439 505 41,000  Level Memphis Center
10:18PM 37.1842 -87.3158 162° South 444 511 41,000  Level Memphis Center
10:19PM 37.0642 -87.2686 163° South 449 517 41,000  Level Memphis Center
10:20PM 36.9464 -87.2186 161° South 449 517 41,000  Level Memphis Center
10:21PM 36.8306 -87.1739 163° South 441 507 41,000  Level Memphis Center
10:22PM 36.7106 -87.1269 163° South 441 507 41,000  Level Memphis Center
10:23PM 36.5819 -87.0750 162° South 441 507 41,000  Level Memphis Center
10:24PM 36.4650 -87.0669 177° South 432 497 41,000  Level Memphis Center
10:25PM 36.3442 -87.0667 180° South 427 491 41,000  Level Memphis Center
10:26PM 36.2292 -87.0558 176° South 441 507 41,000  Level Memphis Center
10:27PM 36.1122 -87.0453 176° South 441 507 41,000 -420 Level Memphis Center
10:28PM 35.9911 -87.0375 177° South 441 507 40,200 -900 Descending Memphis Center
10:29PM 35.8553 -87.0250 176° South 441 507 39,200 -660 Descending Memphis Center
10:32PM 35.4989 -87.0031 177° South 442 509 37,600 -660 Descending Atlanta Center
10:33PM 35.3822 -86.9986 178° South 437 503 36,700 -960 Descending Atlanta Center
10:34PM 35.2572 -86.9917 177° South 437 503 35,700 -900 Descending Atlanta Center
10:35PM 35.1322 -86.9847 177° South 442 509 35,000 -1,980 Descending Atlanta Center
10:39PM 34.6497 -86.9514 177° South 423 487 25,900 -2,400 Descending Memphis Center
10:40PM 34.5758 -86.9500 179° South 419 482 24,100 -2,760 Descending Atlanta Center
10:41PM 34.4631 -86.9511 180° South 382 440 21,700 -2,220 Descending Atlanta Center
10:42PM 34.3694 -86.9381 173° South 403 464 19,700 -2,100 Descending Atlanta Center
10:43PM 34.2675 -86.9319 177° South 382 440 17,500 -2,580 Descending Atlanta Center
10:44PM 34.1361 -86.9300 179° South 345 397 14,100 -2,400 Descending Atlanta Center
10:45PM 34.0758 -86.9203 172° South 355 409 12,700 -1,860 Descending Atlanta Center
10:46PM 33.9842 -86.9097 175° South 344 396 10,800 -2,040 Descending Atlanta Center
10:46PM 33.9508 -86.9036 171° South 304 350 10,000 -1,740 Descending Atlanta Center
10:47PM 33.9033 -86.8844 161° South 325 374 9,100 -1,500 Descending Atlanta Center
10:47PM 33.8742 -86.8761 167° South 281 323 8,500 -1,800 Descending Atlanta Center